{"data":{"norad_id":64542,"intl_designator":"2025-135Q","name":"T1DES 1 (DRAGOON 1)","alt_names":[],"object_type":"PAYLOAD","status":"ACTIVE","operator":null,"country":"US","launch_date":"2025-06-23","launch_site_code":"AFWTR","launch_vehicle":null,"mission":null,"orbit_class":"UNKNOWN","rcs_meters":null,"size_class":null,"mass_kg":null,"dimensions":null,"purposes":[],"wikipedia_slug":null,"has_3d_model":false,"image_url":null,"decayed_at":null,"tle_current":{"epoch":"2026-09-21T20:34:30.566208Z","epoch_age_seconds":65058,"freshness":"FRESH","line1":"1 64542U 25135Q   26264.85729822  .00006809  00000+0  25628-3 0  9998","line2":"2 64542  97.4780  21.1010 0002887 166.9097 193.2217 15.27444554 69670","mean_motion":15.27444554,"eccentricity":0.0002887,"inclination_deg":97.478,"raan_deg":21.101,"arg_perigee_deg":166.9097,"mean_anomaly_deg":193.2217,"bstar":0.00025628,"rev_number":6967,"period_min":94.275107808594,"perigee_km":481.47375853619,"apogee_km":485.43564158381,"semimajor_km":6861.59170006,"source":"CELESTRAK","updated_at":"2026-09-22T09:00:29.841949Z"}}}